CAPE
0 0 0 0 0 0 0 0 0 0 1 0 0 0 251 46 236 65 18 18 218 572 276 554 604 983 499 610 567 548 1211 1176 1183 795 448 336 263 165 159 112 187 201 206 286 211 419 417 590 1087 1069 1486 1326 1255 1720 1026 1599 1564 1478 1728 1638 1161 1164 1491 1792 1780 1778 1426 1537 1638 1468 1377 1428 1554 1516 1311 1251 1230 1116 1657 1138 1338 1967 1525 1911 2301 2894
0 0 0 0 0 0 6 2 1 0 0 0 0 0 4 5 24 0 105 30 141 98 362 342 173 273 474 698 660 676 1013 916 1308 1123 867 349 323 232 217 123 166 128 170 253 126 365 356 602 880 1147 1414 1305 1405 1797 1210 1681 1668 1494 1750 1561 1302 1153 1316 1508 1623 1631 1640 1542 1658 1401 1319 1383 1592 1576 1398 1589 1270 1474 1179 1277 1619 1554 1540 1954 2465 2735
0 0 0 0 0 0 0 0 0 0 0 0 0 0 0 6 6 0 0 10 68 227 54 0 18 608 609 341 490 955 699 982 1153 1135 987 784 691 553 400 292 287 172 150 259 167 226 332 563 793 1292 1303 1395 1496 1716 1272 1740 1813 1577 1901 1717 1498 1357 1228 1250 1430 1666 1859 1448 1472 1461 1313 1258 1478 1490 1572 1447 1375 1405 1605 1558 1424 1836 1859 2126 2748 2998
0 0 0 0 0 0 0 0 0 0 0 0 0 0 0 0 0 22 6 181 266 144 75 31 57 418 1093 881 1402 770 850 1229 1219 1298 1260 1111 796 599 476 537 344 225 157 262 227 183 262 502 948 1138 1320 1407 1534 1644 1402 1668 1708 1574 2029 1972 1726 1655 1474 1284 1386 1630 1705 1665 1609 1923 1568 1696 1288 1381 1714 1686 1842 1548 1034 1130 1069 2507 2249 1977 2722 2909
0 0 0 0 0 0 0 0 0 0 0 0 0 0 0 10 0 1 94 0 54 258 348 227 322 70 897 1481 1524 1417 1262 1375 1511 1542 1751 1436 1276 737 394 493 540 329 159 219 234 199 228 462 716 1035 1380 1446 1513 1478 1556 1590 1572 1388 2174 1994 2001 1743 1582 1364 1629 1775 1826 2170 2150 2636 2624 2616 2057 1917 2208 2065 1546 1844 585 877 1142 2249 2247 2331 2614 2625
0 0 0 0 0 0 0 0 0 0 0 0 0 0 0 0 0 0 0 0 0 258 464 80 56 571 114 365 734 1866 1292 1222 1212 1343 1630 1737 1517 1163 676 474 496 417 166 175 250 217 171 324 473 1023 1265 1315 1473 1364 1410 1432 1292 1475 2178 2175 2173 1889 1684 1607 1826 1854 2013 2259 2368 2354 2435 2521 2520 2530 2254 2205 1454 1261 713 555 753 2082 1957 1838 2768 2627
0 0 0 0 0 0 0 0 0 0 0 0 0 0 0 0 0 0 0 0 11 19 24 26 0 75 83 345 494 1331 1102 1156 1444 1269 1419 1573 1614 1548 1088 472 365 176 171 94 184 209 168 325 414 758 1188 1102 1371 1322 1290 1567 1352 1375 2096 2297 2323 1978 1764 1672 1985 2159 2154 2224 2152 2159 1648 1812 2015 1847 1644 1671 1331 1218 1058 951 579 1895 1791 2266 2495 2608
0 0 0 0 0 0 0 0 0 0 0 0 0 0 0 0 0 0 0 0 0 0 0 0 0 82 196 377 784 917 942 1016 689 1077 1183 991 1068 1088 977 529 401 106 72 121 135 162 218 270 314 551 898 1002 1032 1162 1273 1495 1455 1707 1766 2569 2402 2254 1930 1736 2167 2415 2283 2160 2050 1859 1321 1271 1338 1199 1219 1542 1328 1328 1143 1531 1404 1869 1438 1940 2332 2478
0 0 0 0 0 0 0 0 0 0 0 0 0 0 0 0 0 0 0 0 0 0 6 18 90 153 162 553 332 202 911 930 1863 1492 1408 1192 1373 1248 1335 781 338 298 190 70 66 156 199 212 328 372 594 798 825 928 1132 1330 1652 1892 1837 2387 2513 2333 2255 1888 2215 2417 2152 2005 2014 1842 1321 1056 930 513 827 1283 1429 1531 1336 1831 2102 1888 1650 1884 1991 2608
0 0 0 0 0 0 0 0 0 0 0 0 0 0 0 0 0 0 0 0 0 0 54 33 4 229 115 268 196 507 616 370 653 782 1292 841 708 1115 1107 845 592 457 303 123 61 82 145 270 268 302 454 582 722 775 882 1051 1633 2028 1886 2181 2302 2501 2324 2239 2312 2140 2078 1897 1928 1818 1068 1062 955 667 719 1019 1384 1738 2199 2133 2270 2312 2205 1672 1765 1735
0 0 0 0 0 0 0 0 0 0 0 0 0 0 0 0 0 0 0 0 0 0 6 0 22 202 5 520 449 567 471 652 58 127 848 1269 935 905 1284 1316 700 276 373 195 99 88 103 225 289 292 401 464 548 772 812 916 1380 2140 2324 2400 2212 2531 2409 2428 2555 2138 2123 1936 1954 1796 1488 1341 1318 1046 1072 1179 1197 1426 1774 1898 1824 1978 2076 1922 1459 1135
0 0 0 0 0 0 0 0 0 0 0 0 0 0 0 2 0 0 0 0 0 0 0 47 81 13 352 566 647 416 600 648 690 258 722 1251 1658 1332 980 1124 718 528 392 400 228 86 87 163 301 300 384 374 495 588 595 853 1002 2004 2729 2582 2457 2474 2311 2463 2824 2235 2009 1724 1984 1842 1956 1866 1758 1571 1292 1324 1261 1564 1741 1548 1196 1241 1203 1175 1090 1215
0 0 0 0 0 0 0 0 0 0 0 0 0 0 0 30 0 5 0 0 0 0 0 1 0 18 115 265 213 509 601 726 564 892 438 876 1235 1356 1458 1223 898 1850 1161 711 263 141 76 98 196 303 463 398 565 616 520 510 1186 1762 2443 2871 2600 2801 2314 2362 2667 2649 2203 1770 1917 1892 1893 2008 1930 1890 1528 1632 1575 1606 1650 1193 926 1326 1397 1358 1203 852
0 0 0 0 0 0 0 0 0 0 0 0 0 1 0 8 4 0 11 6 2 0 0 0 17 59 257 636 584 339 382 534 619 1262 865 887 646 984 1365 1614 1510 1181 675 822 501 205 134 93 166 355 508 557 558 595 764 886 919 1448 2094 3071 2832 3065 2654 2541 2437 2480 2361 2123 2057 2083 2176 1971 1883 1930 1677 1464 1314 1168 1192 1177 877 867 1053 1351 1078 844
11 2 0 0 0 0 0 0 0 0 0 0 0 0 0 1 9 37 17 22 7 3 1 0 2 149 159 169 393 255 557 457 822 1345 1267 856 695 785 992 1176 1361 1490 1367 1235 595 192 196 100 149 320 370 558 666 589 724 927 939 1350 1103 2831 2840 3382 2932 2640 2456 2291 2290 2350 2222 2289 2303 2090 1615 1513 1450 1182 942 968 913 722 769 856 580 570 655 608
0 3 0 0 0 0 0 0 0 0 0 0 0 0 0 0 3 0 3 34 2 3 9 1 0 226 392 223 587 463 464 607 1036 1094 1025 814 988 983 869 900 1166 1173 1738 753 786 575 231 240 353 431 511 689 712 778 760 722 987 1263 1228 2164 2875 3160 3265 2959 2670 2360 2304 2305 2346 2582 2574 2170 1937 1454 1188 1275 1180 1050 861 786 625 799 883 609 640 616
0 0 0 0 0 0 0 0 0 0 2 3 0 0 0 0 0 19 17 2 0 0 0 0 26 64 276 548 530 762 272 433 1059 1130 871 1062 998 1375 677 938 1436 1384 1556 1459 991 770 885 244 265 499 431 530 556 703 694 829 908 1246 1382 1971 2598 2945 3066 2908 2978 2449 2267 2440 2294 2488 2525 2424 2147 1640 1250 1033 1081 851 892 916 843 742 706 624 683 464
0 2 0 0 0 0 0 0 0 0 0 0 2 18 6 0 0 0 0 28 5 0 2 0 0 365 58 224 465 80 590 532 266 1169 1020 739 762 1104 991 1443 1108 1522 1695 1934 1740 1436 1485 762 296 371 587 427 585 630 619 656 940 1152 1063 1127 2456 2793 2766 2675 2590 2088 2165 2233 2118 2343 2576 2601 2368 1801 1381 994 628 717 778 994 1067 736 691 637 529 633
0 0 0 0 0 0 0 0 0 0 0 0 0 0 0 6 4 0 0 0 1 5 0 0 0 3 0 400 431 336 558 391 178 504 956 746 596 997 1333 1312 1254 1062 1581 1798 1716 1554 1244 500 1090 484 516 538 807 786 620 690 761 962 922 1200 1566 2149 1943 2362 2299 1929 1868 2064 1977 1929 2252 2198 2231 2181 1760 1350 983 823 486 793 985 752 624 573 489 578
0 0 0 0 0 0 0 0 0 0 0 0 0 0 0 0 0 0 0 0 0 15 4 27 6 1 307 617 592 607 708 440 468 576 1066 1033 753 844 1167 1059 1161 910 1134 1162 1578 2031 1942 1605 1089 662 682 595 1676 1610 836 340 339 507 984 995 1024 1303 956 820 1556 2017 1572 1711 1573 1792 1915 2154 2184 2170 2286 1819 1788 1598 1094 596 597 841 617 638 542 429
0 0 0 0 0 0 0 0 0 3 1 0 0 0 0 0 1 0 0 0 0 6 4 9 13 436 747 734 933 1050 911 1056 889 714 982 901 989 1078 958 1117 1119 1153 1018 1426 1634 1658 2087 1868 1031 774 643 1184 1833 992 694 787 754 566 864 592 1258 1612 1300 777 724 1680 1696 1353 1824 1292 2164 2253 2135 2050 1917 2010 1806 1688 1719 1489 1025 1041 829 435 565 396
0 0 0 1 0 0 6 9 0 0 0 0 0 0 0 0 2 3 7 0 0 0 15 0 0 534 948 723 1047 1091 387 1186 1320 776 827 816 1207 1331 1099 1172 1178 1300 1177 1228 1856 1480 1955 2108 1301 1218 1225 589 630 1164 996 1584 1516 1580 1448 1038 1666 1743 1270 1075 790 1185 1526 1220 586 1291 1800 1929 2554 2200 1952 1542 1644 1769 1720 1778 1833 1770 1652 1331 1320 824
0 0 0 0 0 20 0 0 0 0 0 0 0 0 0 0 0 0 0 4 0 0 0 1 3 396 641 946 1055 1254 1139 1383 1216 992 914 1295 1105 1087 1342 1409 1214 1618 1395 1034 1414 1566 1771 1561 1278 1359 1235 1359 1182 1516 1666 1910 1718 1590 1444 1788 2048 2177 2063 1463 904 898 949 1015 995 1660 1591 1654 1848 1921 1997 1543 1217 1058 1241 1526 1784 1848 1792 1610 1689 1900
0 0 0 0 0 0 0 0 0 0 0 0 0 0 0 0 0 0 0 10 56 6 0 3 1 290 398 1024 1536 1364 1396 1368 1241 1114 1118 1259 1253 1298 1628 1766 1683 1118 1837 1780 1786 1533 1502 1585 1122 810 1175 1261 1209 859 921 1385 2120 2506 2644 2166 2198 2338 2416 1944 858 818 1582 2015 1814 1536 1534 1532 1543 958 1670 1595 1413 848 463 813 1066 1531 1689 1676 1651 1654
0 0 0 0 0 2 0 0 0 0 0 0 0 1 1 0 0 0 0 1 0 0 0 0 7 471 1011 910 1083 1282 1104 1346 982 1046 1076 1420 1400 1326 1331 1451 1299 1575 1576 1663 1796 1616 1177 1068 998 730 1240 1596 1145 842 1241 1842 2016 2395 2612 2762 2706 2787 2662 2846 2736 2314 1785 1751 1721 1793 1559 1156 1202 1525 1639 1584 1451 1229 887 702 582 786 1264 1560 1544 1517
0 0 0 0 1 20 17 6 3 8 0 0 0 0 0 0 0 0 36 19 4 117 163 63 32 228 1276 825 1206 938 1083 1108 1447 1134 1056 1195 1280 1182 1103 1456 1125 905 1341 1566 1656 1649 1527 1173 1002 938 1158 1573 2138 1947 1290 1154 1872 2271 2448 2750 3132 2472 2492 2286 2461 2471 1856 2150 2272 2414 1730 1293 1104 1142 1294 1479 1495 1356 1111 850 345 544 740 1190 1430 1486
0 0 0 0 0 0 8 0 0 0 0 0 0 0 0 0 0 34 63 37 0 164 115 149 241 429 393 554 875 655 1404 1108 1003 1258 1046 874 1040 1081 1151 863 867 854 1315 1314 1257 1307 1328 1362 1024 670 721 844 1335 1278 1356 1642 2073 2564 2346 2159 2589 3115 2684 2007 1907 1971 2058 2383 2601 3002 2291 1372 1095 1027 1124 1327 1400 1372 1302 778 810 635 620 808 1217 1258
0 0 0 0 0 0 0 0 0 0 0 0 0 0 0 0 0 24 13 0 0 0 16 442 750 272 320 274 531 990 1332 1253 950 1041 881 826 708 693 844 841 823 850 908 910 908 1003 1053 978 810 749 939 886 903 912 1080 1019 936 1337 1602 1939 2140 2466 3030 2261 1727 1799 2053 1723 1694 2148 2769 2368 1256 1138 1322 1398 1897 1714 1549 1228 987 1159 881 772 997 1081
0 0 0 0 0 0 0 0 0 0 0 0 0 0 0 0 0 17 4 22 406 235 20 988 1032 676 620 594 932 1105 997 1074 924 694 610 585 661 703 748 889 892 939 873 854 949 902 748 838 705 650 644 572 714 936 1115 1109 1170 1035 1144 1365 1570 1719 2524 2830 2449 2127 1861 1826 1704 1776 1769 2114 2567 2110 1590 1750 2015 2618 2261 1950 1812 2688 1883 1499 1471 1426
0 0 0 0 0 0 0 0 0 0 0 0 0 0 0 0 0 10 39 24 190 822 554 388 794 811 730 729 856 942 890 804 738 578 557 624 592 567 648 794 875 895 871 868 796 738 698 746 787 723 632 586 559 475 661 845 925 1265 1045 852 790 633 1479 1661 2737 2557 2294 1896 1920 1896 1724 1764 1458 1324 2160 2254 2574 3358 3622 2856 2563 3028 3337 2834 2597 2485
0 0 0 0 0 0 0 0 0 0 0 0 0 0 0 0 0 5 52 136 226 104 407 478 1082 449 524 791 1021 974 927 705 631 554 583 668 628 572 594 733 734 824 842 842 826 782 702 661 680 664 600 556 541 527 448 437 742 1005 1052 888 557 257 372 1545 1714 2321 2339 2077 1805 1903 1910 1639 1390 1161 1796 3506 3357 3480 3558 2863 2270 3336 4067 3985 3216 2445
0 0 0 0 0 0 0 0 0 0 0 0 0 0 0 0 0 14 13 58 247 427 592 745 269 644 794 955 991 815 761 737 582 559 497 480 483 436 498 520 564 723 796 769 812 833 807 764 690 744 678 545 529 541 552 493 652 758 1430 1385 1411 848 1894 1698 1888 1886 2029 2002 1625 1238 1644 1592 1291 1381 1468 2015 2514 3246 3304 3072 3147 3332 3524 3014 2427 2662
0 0 0 0 0 0 7 0 0 0 0 0 0 0 0 0 0 58 134 118 211 73 24 105 237 531 804 691 638 833 873 729 543 512 457 396 383 348 347 350 502 588 672 727 757 778 736 675 616 573 623 598 648 652 602 596 571 571 724 961 1208 753 1061 1672 1906 1794 1470 1584 1333 1343 1427 1587 1391 1258 1601 1855 1774 3313 2488 3268 3418 3269 3310 3088 2784 2367
0 0 0 0 0 6 6 0 0 0 0 69 104 0 0 17 115 60 95 98 120 106 566 231 374 568 910 709 588 1008 1005 727 622 586 520 403 338 366 336 322 374 457 512 562 536 559 512 504 516 594 659 687 684 653 660 592 544 538 587 639 642 826 794 994 1206 1342 1322 1176 1123 1130 1212 1311 1217 1254 1377 1395 1291 1954 2796 3643 3478 3428 3172 3031 3098 2883
0 0 0 0 0 0 4 0 0 0 57 14 184 233 14 2 67 195 260 364 458 275 291 332 412 569 878 1177 1062 823 911 754 770 442 514 453 515 462 250 285 249 215 221 53 104 263 375 351 334 406 434 497 611 666 618 581 537 465 514 552 567 618 644 651 654 685 779 838 842 929 1124 1103 931 964 1252 1126 1341 1709 1862 1845 3257 3123 2908 2939 3102 3037
0 0 0 0 0 0 0 0 0 0 85 7 102 14 98 8 6 56 119 263 316 370 673 778 963 1012 768 658 658 623 684 809 682 632 560 188 456 193 55 118 64 19 5 26 24 126 263 408 451 444 463 470 474 496 531 502 469 453 466 428 522 547 540 560 560 586 574 585 593 565 826 1039 999 1019 887 1095 1214 1480 1302 1550 2658 2748 3235 2245 1891 1733
0 0 0 0 0 0 0 0 0 0 0 0 16 31 43 30 81 80 110 249 611 646 899 600 762 1027 752 845 886 854 830 737 616 624 417 363 132 215 61 164 110 27 8 176 200 189 272 371 391 437 444 415 366 371 418 444 458 443 412 400 402 423 447 464 476 491 455 438 439 405 389 499 754 831 868 1035 1162 1273 1312 1792 1886 2365 3304 2373 1494 1433
0 0 0 0 0 0 0 0 0 0 0 122 573 493 89 89 237 523 240 368 262 361 247 568 501 1184 748 804 898 1004 948 719 678 806 688 414 256 80 58 8 14 7 68 130 142 158 199 272 296 269 238 284 317 330 371 403 429 428 424 381 357 380 417 414 424 398 376 346 312 318 379 444 608 705 692 725 875 844 803 708 775 725 2006 1929 1521 1172
0 0 0 0 0 0 0 0 0 0 41 248 500 148 152 102 89 119 77 351 283 611 265 372 506 515 868 796 880 662 511 564 579 884 742 370 203 214 46 2 0 0 102 130 155 156 158 168 167 226 244 233 324 280 352 353 373 403 378 337 312 334 364 374 341 348 331 334 292 193 211 248 271 283 306 306 293 289 191 184 294 672 777 1410 1560 1187
0 0 0 0 0 0 0 0 0 0 8 161 135 36 144 127 152 171 87 323 423 224 559 585 600 562 817 1179 554 599 396 254 264 606 485 355 198 164 135 59 0 0 136 127 166 167 166 171 147 144 137 176 236 283 280 276 292 290 278 243 244 270 253 287 335 356 325 218 162 105 147 191 190 180 174 148 108 36 9 4 10 78 154 147 179 324
0 0 0 0 0 0 0 0 0 2 82 64 0 27 186 215 220 269 220 432 310 599 550 1112 1266 952 779 1273 1040 410 510 635 678 649 381 336 328 124 13 33 102 38 73 128 148 155 157 171 170 155 154 146 145 205 216 229 239 257 211 202 212 250 217 192 213 185 168 212 186 109 43 16 6 22 92 91 113 99 75 135 164 147 202 44 32 179
0 0 0 0 0 0 0 0 0 0 266 83 0 15 240 122 37 33 605 1104 764 730 445 955 844 806 473 670 718 644 721 686 528 601 487 555 277 110 28 0 128 133 110 91 78 58 93 118 137 137 117 102 107 94 94 109 149 199 213 192 222 219 200 168 161 143 159 147 115 114 18 32 14 2 0 7 51 80 78 134 175 223 260 204 196 153
0 0 0 0 0 0 0 0 0 0 321 223 91 111 198 25 339 308 691 779 436 765 622 1033 724 921 768 915 770 1079 795 698 806 661 436 463 318 145 92 68 177 67 0 57 47 0 0 41 0 22 28 88 31 29 62 66 64 58 55 42 99 132 176 201 192 164 126 0 0 0 16 30 8 0 1 4 30 48 90 80 87 132 152 164 198 210
0 0 0 0 0 0 0 0 3 331 69 208 58 156 286 387 604 787 725 816 753 690 679 656 972 758 641 1019 1040 661 720 854 810 817 652 352 79 0 2 0 98 0 0 0 0 0 0 0 0 0 0 0 0 0 21 64 76 43 18 12 17 2 0 0 0 0 0 0 0 0 0 0 7 4 0 48 51 62 49 32 6 28 68 147 195 180
0 0 497 282 0 0 172 394 337 321 360 272 197 188 641 812 585 491 780 1073 639 596 700 865 1082 1071 1653 1560 1310 1220 844 844 824 726 411 231 10 0 0 0 0 0 0 0 0 0 0 0 0 0 0 0 0 0 0 17 78 67 26 3 9 2 0 0 0 0 0 0 0 0 0 0 0 0 0 0 11 28 41 16 3 12 38 33 119 124
140 8 564 77 1 26 91 296 204 182 250 387 409 713 860 712 590 526 551 617 551 686 364 782 715 743 1093 1250 1242 1280 1193 1052 827 670 495 156 16 0 0 0 0 0 0 0 0 0 0 0 0 0 0 0 0 0 0 0 2 39 60 16 2 27 14 0 0 0 0 0 0 0 0 0 0 0 0 0 0 0 0 11 10 8 11 6 4 8
0 84 51 0 174 31 99 248 74 150 312 354 595 597 684 563 620 483 568 682 694 496 641 700 636 738 792 847 1384 1438 1303 1050 810 656 436 128 11 0 0 0 0 4 13 7 6 8 2 1 1 0 0 0 0 0 0 0 0 2 32 38 10 23 68 41 3 0 0 0 0 0 0 0 0 0 0 0 0 0 0 0 0 0 1 2 2 1
41 28 3 0 153 59 315 454 235 328 379 349 499 769 597 682 587 630 667 781 676 667 622 656 612 591 747 823 1156 1241 1301 1038 858 634 365 144 28 39 105 64 80 131 198 150 106 70 69 70 67 70 32 2 0 0 0 0 0 0 8 31 62 88 52 24 29 0 0 0 0 0 0 0 0 0 0 0 0 0 0 0 0 0 0 0 0 0
143 0 0 0 7 142 634 888 669 388 472 409 484 500 644 741 748 732 764 724 637 646 667 468 486 544 623 665 870 1156 1214 1064 767 512 256 189 174 180 219 280 303 333 321 302 254 238 238 211 180 172 175 116 60 2 0 0 0 0 0 6 86 137 102 90 23 2 1 0 0 0 0 0 0 0 0 0 0 0 0 0 0 0 0 0 0 0
16 42 7 0 0 68 389 868 552 253 440 404 454 542 690 819 808 836 713 566 537 604 462 469 469 592 1036 533 775 1111 1233 1076 833 485 410 377 337 383 429 431 398 366 282 268 297 277 311 289 239 249 267 222 167 145 56 8 0 0 0 0 0 4 56 78 56 0 0 0 0 0 0 0 0 0 0 0 0 0 0 0 0 0 0 0 0 0
37 76 1 3 0 0 29 826 517 180 370 613 604 662 780 721 750 709 584 526 548 513 493 497 446 763 1106 984 1218 1028 1201 1045 722 590 527 442 466 512 548 470 441 353 290 273 240 151 127 262 350 332 315 267 225 167 136 52 22 7 0 0 0 0 0 0 0 0 0 0 0 0 0 0 0 0 0 0 0 0 0 0 0 0 0 0 0 0
Wind_Speed
nan nan nan nan nan nan nan nan nan nan nan nan nan nan 19 nan 14 nan nan nan 15 14 6 4 5 2 5 2 5 4 5 4 3 7 5 5 9 7 6 8 8 5 4 9 9 10 11 11 8 7 5 5 6 5 6 5 5 5 5 6 5 4 5 4 3 2 2 3 4 5 6 6 6 8 8 9 10 10 10 8 8 9 8 8 8 8
nan nan nan nan nan nan nan nan nan nan nan nan nan nan nan nan nan nan 19 nan 16 nan 5 7 17 9 2 3 3 2 3 5 6 6 7 6 8 7 8 9 7 9 3 9 9 10 12 10 10 8 5 5 5 5 6 5 6 6 7 7 6 4 4 4 3 1 2 2 5 6 6 6 6 7 9 9 10 10 8 8 9 10 9 8 9 10
nan nan nan nan nan nan nan nan nan nan nan nan nan nan nan nan nan nan nan nan nan 12 nan nan nan 14 16 11 9 5 4 4 6 7 6 8 8 8 8 9 8 9 6 8 9 10 11 12 12 9 6 5 5 6 6 5 5 6 6 6 6 5 4 3 2 1 2 3 5 7 7 7 7 7 9 9 9 9 8 8 8 9 9 8 9 10
nan nan nan nan nan nan nan nan nan nan nan nan nan nan nan nan nan nan nan 14 10 14 nan nan nan 16 17 14 9 10 5 6 5 6 5 6 8 7 7 9 9 9 9 8 8 10 11 12 11 10 8 7 6 5 4 5 5 4 4 5 6 5 4 2 1 1 0 2 4 8 7 9 8 8 9 8 9 8 7 8 7 9 8 9 10 10
nan nan nan nan nan nan nan nan nan nan nan nan nan nan nan nan nan nan nan nan nan 9 11 9 10 nan 12 13 11 11 10 10 9 7 6 7 6 7 7 7 9 10 10 9 7 8 9 12 11 11 10 8 7 4 4 4 4 2 5 5 6 5 3 1 2 1 1 2 3 6 7 8 8 8 9 9 9 9 8 8 8 8 8 11 11 10
nan nan nan nan nan nan nan nan nan nan nan nan nan nan nan nan nan nan nan nan nan 10 9 nan nan 14 8 7 11 17 10 11 10 6 8 7 6 6 5 6 8 9 11 9 9 7 9 9 13 11 11 10 8 6 5 3 4 4 5 6 5 4 2 1 3 1 2 1 2 3 4 5 6 7 8 9 8 7 8 8 8 7 8 9 10 10
nan nan nan nan nan nan nan nan nan nan nan nan nan nan nan nan nan nan nan nan nan nan nan nan nan nan nan 9 9 16 13 12 12 9 8 8 7 6 6 5 7 9 13 nan 10 7 9 10 12 12 11 11 9 8 7 4 4 5 6 6 5 3 2 2 3 2 2 2 2 2 3 4 5 6 7 8 9 7 7 9 6 8 7 7 9 8
nan nan nan nan nan nan nan nan nan nan nan nan nan nan nan nan nan nan nan nan nan nan nan nan nan nan 17 17 7 15 11 16 10 13 7 9 8 6 6 4 6 8 nan 12 10 8 8 11 11 11 12 10 11 10 10 7 6 5 6 7 5 3 2 1 3 2 2 3 3 2 3 4 5 5 6 6 7 7 7 8 7 6 6 6 8 8
nan nan nan nan nan nan nan nan nan nan nan nan nan nan nan nan nan nan nan nan nan nan nan nan nan 17 24 20 11 16 14 12 16 15 15 11 8 6 9 10 7 6 10 nan nan 11 8 10 11 11 11 10 11 12 11 9 9 6 6 7 6 5 3 2 4 2 2 3 3 3 3 4 4 3 4 5 6 6 6 6 6 6 5 5 6 7
nan nan nan nan nan nan nan nan nan nan nan nan nan nan nan nan nan nan nan nan nan nan nan nan nan 18 24 28 24 16 15 19 18 13 16 11 9 9 9 8 9 8 9 10 nan nan 11 10 10 10 11 10 9 12 12 10 11 9 8 7 7 6 4 4 5 2 3 2 4 3 3 3 4 4 5 5 5 6 5 5 5 6 7 5 4 4
nan nan nan nan nan nan nan nan nan nan nan nan nan nan nan nan nan nan nan nan nan nan nan nan nan 22 nan 25 22 22 17 23 nan 13 18 17 14 14 13 11 13 9 8 10 nan nan 12 11 10 10 9 11 10 11 12 10 10 11 9 8 8 8 5 7 6 4 3 3 3 4 3 3 3 3 4 4 3 4 4 4 3 4 5 6 4 3
nan nan nan nan nan nan nan nan nan nan nan nan nan nan nan nan nan nan nan nan nan nan nan nan nan nan 21 29 27 30 26 22 13 11 18 20 20 17 14 12 14 16 12 10 10 nan nan 13 10 9 9 11 11 12 11 10 12 9 11 10 9 8 6 8 7 5 5 4 3 3 3 3 3 3 4 2 2 3 2 2 3 3 3 4 4 4
nan nan nan nan nan nan nan nan nan nan nan nan nan nan nan nan nan nan nan nan nan nan nan nan nan nan 24 29 32 24 28 19 18 17 9 11 10 11 13 12 15 27 19 10 10 12 nan nan 12 10 10 11 12 11 13 8 12 13 10 12 10 9 8 8 8 7 6 5 5 4 4 4 4 4 4 3 3 3 3 3 3 4 3 3 3 3
nan nan nan nan nan nan nan nan nan nan nan nan nan nan nan nan nan nan nan nan nan nan nan nan nan nan 32 32 30 24 21 21 17 14 17 11 9 8 7 12 18 26 21 15 12 11 13 nan 13 12 11 13 13 11 11 13 12 13 11 13 10 10 10 9 8 8 7 6 6 6 5 5 5 4 3 3 3 3 4 4 3 2 2 2 1 1
nan nan nan nan nan nan nan nan nan nan nan nan nan nan nan nan nan nan nan nan nan nan nan nan nan 28 28 30 21 23 21 15 21 28 22 19 15 11 10 12 14 14 17 16 12 8 13 nan 14 15 13 14 14 12 14 13 13 16 11 13 13 11 10 10 8 8 7 7 6 7 6 7 6 5 4 4 4 4 4 4 4 4 3 2 2 3
nan nan nan nan nan nan nan nan nan nan nan nan nan nan nan nan nan nan nan nan nan nan nan nan nan 34 33 30 31 28 21 28 22 31 31 30 25 19 17 18 19 15 13 17 19 15 12 14 14 16 16 16 15 14 15 15 15 14 14 14 14 12 11 11 10 8 8 7 7 7 7 7 7 7 6 6 6 6 5 5 4 4 5 6 5 4
nan nan nan nan nan nan nan nan nan nan nan nan nan nan nan nan nan nan nan nan nan nan nan nan nan nan 34 30 34 27 27 28 30 41 37 32 29 27 23 23 21 19 15 21 30 32 24 13 14 16 17 16 15 15 16 16 16 17 17 17 13 14 12 11 11 9 9 8 8 7 7 7 8 6 5 6 4 3 5 6 5 5 4 5 7 6
nan nan nan nan nan nan nan nan nan nan nan nan nan nan nan nan nan nan nan nan nan nan nan nan nan 26 nan 28 30 nan 23 32 38 41 38 34 27 25 24 22 19 19 17 15 23 22 22 21 12 15 17 16 14 15 17 16 18 20 17 15 15 15 13 11 11 10 10 10 9 9 8 7 7 7 6 6 6 5 6 5 6 5 6 5 5 6
nan nan nan nan nan nan nan nan nan nan nan nan nan nan nan nan nan nan nan nan nan nan nan nan nan nan nan 31 26 26 25 27 34 38 39 36 31 27 24 25 21 20 16 17 23 21 21 30 30 17 17 18 17 16 17 17 19 19 18 16 16 14 11 11 12 11 12 12 11 11 10 8 8 7 7 7 8 8 6 5 6 5 6 6 6 7
nan nan nan nan nan nan nan nan nan nan nan nan nan nan nan nan nan nan nan nan nan nan nan nan nan nan 32 32 28 24 25 30 31 36 34 37 33 22 22 24 27 22 15 14 19 22 24 28 32 34 23 21 33 27 18 18 16 17 17 16 15 16 12 12 11 14 13 12 11 12 13 11 10 9 8 8 8 8 8 6 6 7 6 6 8 7
nan nan nan nan nan nan nan nan nan nan nan nan nan nan nan nan nan nan nan nan nan nan nan nan nan 30 33 26 27 26 26 32 33 33 32 31 34 28 21 22 23 26 19 13 17 17 17 21 27 28 30 31 27 23 19 18 22 18 18 14 16 18 16 15 15 19 14 13 14 13 14 12 11 9 9 8 8 8 8 9 8 8 8 9 8 8
nan nan nan nan nan nan nan nan nan nan nan nan nan nan nan nan nan nan nan nan nan nan nan nan nan 31 30 22 27 25 24 32 33 35 31 29 32 30 23 25 20 24 28 17 17 16 16 15 19 34 39 33 31 29 25 27 27 22 20 17 21 19 17 16 16 18 19 17 15 10 16 13 15 12 10 9 9 8 9 9 10 9 9 8 9 9
nan nan nan nan nan nan nan nan nan nan nan nan nan nan nan nan nan nan nan nan nan nan nan nan nan 31 31 24 26 26 29 33 35 35 34 32 32 31 30 29 26 27 26 25 23 19 19 17 18 23 33 40 38 35 33 33 32 28 24 25 22 21 18 18 15 16 20 18 16 15 17 15 15 14 12 11 10 9 9 10 10 11 10 10 10 11
nan nan nan nan nan nan nan nan nan nan nan nan nan nan nan nan nan nan nan nan nan nan nan nan nan 33 26 22 25 28 29 33 35 36 33 33 32 33 32 30 29 27 28 29 28 25 23 22 20 20 24 33 37 36 33 34 36 34 27 25 22 20 19 18 15 17 21 21 20 18 16 16 17 13 14 13 13 11 10 12 12 11 11 11 11 11
nan nan nan nan nan nan nan nan nan nan nan nan nan nan nan nan nan nan nan nan nan nan nan nan nan 25 28 24 28 28 31 35 35 37 36 35 34 34 35 32 30 28 29 29 29 29 28 26 24 22 22 27 34 36 35 37 36 32 26 28 25 23 22 20 20 21 20 21 21 19 17 16 17 17 16 15 16 14 13 13 12 12 11 12 11 11
nan nan nan nan nan nan nan nan nan nan nan nan nan nan nan nan nan nan nan nan nan 25 28 nan nan 27 26 27 28 31 36 38 39 38 38 38 37 37 36 34 33 30 30 30 28 28 31 30 29 27 23 22 29 37 36 34 37 34 31 30 30 32 34 34 30 24 18 21 21 20 18 16 16 17 17 16 15 15 16 15 14 13 13 12 12 12
nan nan nan nan nan nan nan nan nan nan nan nan nan nan nan nan nan nan nan nan nan 25 19 25 29 29 21 22 28 31 31 37 39 41 40 39 39 40 41 38 35 29 27 29 29 29 30 33 33 31 28 23 22 30 39 40 40 41 37 33 33 35 34 30 28 28 27 26 21 19 18 16 16 17 17 19 17 16 17 17 16 15 13 15 14 12
nan nan nan nan nan nan nan nan nan nan nan nan nan nan nan nan nan nan nan nan nan nan nan 33 31 28 32 32 25 25 30 35 41 43 41 39 39 39 39 40 40 33 29 28 29 32 33 34 35 35 33 29 23 23 28 33 37 38 40 41 38 36 34 32 29 28 27 26 24 23 18 17 16 17 19 20 21 18 17 17 17 17 16 15 13 13
nan nan nan nan nan nan nan nan nan nan nan nan nan nan nan nan nan nan nan nan 25 21 nan 35 31 27 31 26 21 22 24 31 36 41 41 40 41 41 39 39 37 33 31 30 30 31 32 33 34 35 32 31 28 27 25 24 25 27 31 38 41 39 35 33 31 30 29 28 25 24 24 25 26 23 22 22 22 21 20 19 21 30 26 27 25 24
nan nan nan nan nan nan nan nan nan nan nan nan nan nan nan nan nan nan nan nan 20 23 24 26 28 30 29 27 27 25 22 24 31 35 38 42 48 46 42 38 36 33 32 30 29 31 32 32 33 34 32 29 29 29 28 25 22 21 21 27 36 41 38 34 33 31 32 30 28 28 27 26 26 25 21 20 25 25 24 22 20 25 29 28 25 24
nan nan nan nan nan nan nan nan nan nan nan nan nan nan nan nan nan nan nan 24 22 20 24 23 29 32 24 24 28 28 23 22 26 33 35 39 46 49 44 43 41 38 37 34 32 33 33 32 34 34 31 28 27 29 30 28 26 23 22 22 29 36 37 37 32 32 34 33 32 31 30 30 29 26 24 23 25 24 23 21 22 26 28 27 25 24
nan nan nan nan nan nan nan nan nan nan nan nan nan nan nan nan nan nan nan nan 17 20 25 30 28 26 30 25 27 26 24 25 28 30 32 36 42 43 42 42 42 39 38 37 37 36 34 34 34 32 30 29 28 28 29 30 28 26 25 24 28 36 44 42 39 35 34 35 37 35 33 31 30 29 28 27 24 24 23 23 24 26 26 24 25 26
nan nan nan nan nan nan nan nan nan nan nan nan nan nan nan nan nan nan 17 16 14 nan nan 23 26 27 27 28 23 22 25 26 28 29 29 33 39 41 40 39 38 36 36 36 38 37 35 33 31 30 30 29 27 26 26 28 29 29 27 26 28 35 49 51 46 42 38 38 39 37 35 31 29 31 32 29 24 25 25 25 26 27 28 26 26 27
nan nan nan nan nan nan nan nan nan nan nan nan 24 nan nan nan 13 nan nan nan 15 15 25 23 27 28 24 26 22 25 24 27 29 29 28 29 32 35 36 34 32 35 38 39 37 40 39 34 31 30 29 28 26 25 24 25 28 29 29 29 27 30 46 56 52 47 46 43 40 37 34 32 31 29 30 30 28 28 28 30 31 31 31 29 29 28
nan nan nan nan nan nan nan nan nan nan nan nan 20 21 nan nan nan 11 14 17 18 16 22 27 27 25 25 26 27 26 26 28 31 30 30 32 30 30 31 33 33 34 38 nan 35 37 39 36 33 31 29 27 26 23 22 23 25 27 29 30 28 25 33 51 55 51 47 46 43 40 38 37 39 34 30 30 30 29 29 31 33 35 33 32 32 31
nan nan nan nan nan nan nan nan nan nan nan nan 21 nan nan nan nan nan 15 17 15 18 22 25 26 27 25 26 28 27 26 28 31 31 29 29 31 32 nan 29 nan nan nan nan nan 26 30 32 32 29 26 24 24 22 21 22 22 24 27 30 31 28 27 35 44 49 47 45 44 43 45 46 42 35 31 33 31 32 32 28 34 35 35 33 32 33
nan nan nan nan nan nan nan nan nan nan nan nan nan nan nan nan nan nan 11 17 22 18 24 19 23 24 25 25 25 25 24 24 27 29 26 24 31 36 nan 26 36 nan nan 38 33 25 24 27 28 25 23 22 21 21 21 18 19 22 23 26 30 32 30 29 29 32 36 36 34 35 38 43 46 47 45 44 42 36 32 34 36 36 39 36 35 34
nan nan nan nan nan nan nan nan nan nan nan 26 27 23 nan nan 12 14 13 18 22 19 20 15 18 19 23 23 23 22 21 19 20 25 26 24 28 nan nan nan nan nan nan 34 29 26 25 26 25 24 22 21 20 20 19 20 20 20 21 23 25 29 32 32 28 24 24 25 25 25 26 28 33 39 44 49 53 51 45 42 40 34 37 37 35 33
nan nan nan nan nan nan nan nan nan nan nan 26 25 16 19 14 nan 18 nan 18 16 10 26 21 18 13 12 22 22 23 18 17 18 22 26 29 28 28 nan nan nan nan 29 31 30 28 28 26 24 22 22 22 22 20 20 19 19 20 21 21 23 25 28 31 31 28 25 24 24 24 22 22 25 28 31 36 44 50 51 48 48 47 42 38 38 43
nan nan nan nan nan nan nan nan nan nan nan 18 23 nan 20 14 15 12 nan 21 18 12 17 25 27 18 17 19 22 19 19 18 19 17 23 26 30 30 27 nan nan nan 30 31 30 28 27 25 24 26 25 24 23 22 22 20 19 20 21 21 22 24 26 28 29 28 27 25 24 25 28 28 28 26 25 25 28 nan nan nan nan nan 44 41 36 32
nan nan nan nan nan nan nan nan nan nan nan nan nan nan 21 15 14 10 12 23 20 17 23 26 23 22 21 17 15 23 15 19 21 24 23 22 26 29 nan nan 28 nan nan 33 31 29 27 28 29 27 27 25 24 24 23 22 21 22 22 22 22 24 25 25 26 28 28 27 26 27 nan nan nan nan nan nan 23 nan nan 31 28 28 31 nan nan 20
nan nan nan nan nan nan nan nan nan nan 27 nan nan nan 21 15 nan nan 20 22 16 19 22 27 18 19 21 17 21 18 21 23 24 24 22 22 24 24 nan nan 28 29 32 nan nan nan nan 30 29 29 29 28 27 nan nan 25 24 22 22 23 24 24 24 24 25 27 29 30 29 29 nan nan nan nan nan nan nan nan nan 30 29 28 29 31 27 21
nan nan nan nan nan nan nan nan nan nan 24 15 nan 18 21 nan 23 20 22 20 17 16 19 29 24 13 16 15 21 19 23 23 22 23 21 23 22 24 nan nan 31 nan nan nan nan nan nan nan nan nan nan nan nan nan nan nan nan nan nan nan nan 24 23 24 24 27 29 nan nan nan nan nan nan nan nan nan nan nan nan nan nan 33 33 33 34 32
nan nan nan nan nan nan nan nan nan 28 nan 20 nan 18 20 24 25 23 20 21 18 18 20 21 27 25 20 16 23 24 22 21 22 22 22 21 nan nan nan nan nan nan nan nan nan nan nan nan nan nan nan nan nan nan nan nan nan nan nan nan nan nan nan nan nan nan nan nan nan nan nan nan nan nan nan nan nan nan nan nan nan nan nan 36 35 33
nan nan 22 19 nan nan 23 28 22 21 23 20 19 23 24 25 22 21 17 22 20 21 19 21 22 20 19 23 22 23 22 20 21 20 21 22 nan nan nan nan nan nan nan nan nan nan nan nan nan nan nan nan nan nan nan nan nan nan nan nan nan nan nan nan nan nan nan nan nan nan nan nan nan nan nan nan nan nan nan nan nan nan nan nan 33 33
23 nan 23 nan nan nan nan 26 26 20 19 21 21 21 22 19 20 17 19 20 20 23 19 21 21 19 18 19 20 20 21 22 21 20 21 23 nan nan nan nan nan nan nan nan nan nan nan nan nan nan nan nan nan nan nan nan nan nan nan nan nan nan nan nan nan nan nan nan nan nan nan nan nan nan nan nan nan nan nan nan nan nan nan nan nan nan
nan nan nan nan 23 nan nan 27 nan 18 20 18 22 22 21 19 20 19 20 21 22 21 22 22 20 19 17 17 17 18 21 20 20 19 19 22 nan nan nan nan nan nan nan nan nan nan nan nan nan nan nan nan nan nan nan nan nan nan nan nan nan nan nan nan nan nan nan nan nan nan nan nan nan nan nan nan nan nan nan nan nan nan nan nan nan nan
nan nan nan nan 20 nan 27 25 22 24 21 20 20 21 19 21 21 20 21 22 22 22 21 22 20 18 17 17 17 17 18 18 19 17 18 18 nan nan 26 nan nan 31 32 33 34 nan nan nan nan nan nan nan nan nan nan nan nan nan nan nan nan nan nan nan nan nan nan nan nan nan nan nan nan nan nan nan nan nan nan nan nan nan nan nan nan nan
24 nan nan nan nan 27 25 24 25 24 21 19 19 18 20 20 20 21 21 22 20 20 21 19 17 18 16 19 17 16 16 16 17 15 17 17 16 16 18 22 24 25 26 28 31 32 34 35 35 34 34 33 nan nan nan nan nan nan nan nan nan 28 30 nan nan nan nan nan nan nan nan nan nan nan nan nan nan nan nan nan nan nan nan nan nan nan
nan nan nan nan nan nan 18 24 21 19 19 19 18 18 21 20 19 19 18 18 19 20 19 18 19 17 19 19 17 17 17 16 16 15 16 15 14 15 15 16 17 18 20 22 23 27 30 31 31 31 31 30 29 29 nan nan nan nan nan nan nan nan nan nan nan nan nan nan nan nan nan nan nan nan nan nan nan nan nan nan nan nan nan nan nan nan
nan nan nan nan nan nan nan 23 17 16 19 21 19 21 21 19 18 17 16 18 18 19 18 18 18 19 19 18 16 17 17 15 16 16 14 13 13 13 13 12 13 13 14 16 17 19 22 24 26 27 27 26 26 27 28 nan nan nan nan nan nan nan nan nan nan nan nan nan nan nan nan nan nan nan nan nan nan nan nan nan nan nan nan nan nan nan
Wind_Direction
nan nan nan nan nan nan nan nan nan nan nan nan nan nan 260 nan 270 nan nan nan 247 257 290 351 267 322 233 257 328 33 327 343 307 293 276 274 274 278 274 285 293 291 297 299 313 317 314 315 319 318 348 352 349 347 324 352 351 346 352 329 349 348 342 342 349 26 44 75 92 101 94 104 116 125 127 128 137 144 159 161 159 151 167 160 164 158
nan nan nan nan nan nan nan nan nan nan nan nan nan nan nan nan nan nan 253 nan 241 nan 315 306 309 330 170 204 277 255 346 9 323 302 296 290 275 266 278 279 294 290 259 296 300 315 314 317 321 315 332 334 341 348 341 2 351 355 353 342 347 352 354 358 355 69 104 109 108 97 93 99 109 119 116 128 131 144 165 159 170 147 174 168 163 159
nan nan nan nan nan nan nan nan nan nan nan nan nan nan nan nan nan nan nan nan nan 204 nan nan nan 295 320 317 307 311 33 318 315 308 297 293 277 258 266 279 284 290 291 285 299 313 310 315 320 308 314 321 336 352 354 357 349 356 348 351 348 349 5 4 349 61 160 111 103 103 110 103 105 104 116 127 140 149 155 156 155 156 176 160 158 156
nan nan nan nan nan nan nan nan nan nan nan nan nan nan nan nan nan nan nan 231 246 219 nan nan nan 246 247 258 286 304 311 258 276 297 291 274 280 275 273 273 283 289 294 302 302 314 313 309 312 309 312 316 322 352 347 360 347 356 344 352 1 344 13 357 309 77 266 129 123 130 115 127 114 114 124 131 138 142 153 143 149 164 158 145 152 149
nan nan nan nan nan nan nan nan nan nan nan nan nan nan nan nan nan nan nan nan nan 237 237 226 233 nan 234 263 266 265 259 248 262 268 257 268 268 277 268 265 281 289 286 288 297 306 309 306 313 314 308 314 317 345 333 0 347 354 340 349 358 350 9 358 277 126 232 208 131 138 149 139 135 125 122 121 123 134 142 136 140 154 148 141 147 150
nan nan nan nan nan nan nan nan nan nan nan nan nan nan nan nan nan nan nan nan nan 246 252 nan nan 248 257 255 260 264 252 263 260 258 273 262 267 261 274 281 279 279 279 288 300 303 297 305 305 309 311 314 310 323 317 353 338 340 331 336 352 350 2 335 289 230 205 199 135 128 132 120 120 122 115 117 116 124 127 125 137 152 141 142 145 152
nan nan nan nan nan nan nan nan nan nan nan nan nan nan nan nan nan nan nan nan nan nan nan nan nan nan nan 267 260 260 256 262 246 267 261 254 238 233 228 263 274 273 278 nan 282 289 297 299 299 309 313 313 314 314 303 316 312 332 315 323 341 330 346 314 292 260 203 205 159 129 118 127 126 127 131 132 133 141 136 139 146 147 145 147 144 153
nan nan nan nan nan nan nan nan nan nan nan nan nan nan nan nan nan nan nan nan nan nan nan nan nan nan 261 228 184 271 273 265 263 256 257 254 251 235 223 216 250 262 nan 278 281 287 287 290 294 306 307 312 308 305 303 302 292 309 310 317 323 298 318 319 285 275 219 212 183 176 156 147 149 137 141 145 140 150 150 160 147 159 152 151 150 148
nan nan nan nan nan nan nan nan nan nan nan nan nan nan nan nan nan nan nan nan nan nan nan nan nan 229 250 249 245 276 262 252 251 252 254 234 236 230 216 202 204 231 260 nan nan 284 280 278 285 296 298 304 309 302 302 297 287 291 303 309 309 294 295 292 300 285 253 212 201 202 188 177 166 147 145 158 153 166 168 169 166 167 163 172 152 152
nan nan nan nan nan nan nan nan nan nan nan nan nan nan nan nan nan nan nan nan nan nan nan nan nan 227 241 250 251 229 228 251 241 231 255 254 251 240 235 226 209 213 235 253 nan nan 272 273 277 285 291 298 300 295 294 297 291 293 294 306 311 297 283 274 298 289 275 236 216 198 183 204 183 167 196 169 176 177 186 184 181 183 176 179 169 166
nan nan nan nan nan nan nan nan nan nan nan nan nan nan nan nan nan nan nan nan nan nan nan nan nan 229 nan 255 248 259 254 263 nan 229 230 236 235 240 225 233 213 196 232 233 nan nan 269 268 274 275 291 288 291 287 295 295 278 290 295 302 310 301 276 278 288 295 292 259 234 206 204 201 193 180 211 193 191 192 204 189 197 210 190 176 202 181
nan nan nan nan nan nan nan nan nan nan nan nan nan nan nan nan nan nan nan nan nan nan nan nan nan nan 234 248 250 248 249 243 254 216 219 221 225 230 239 238 244 197 197 224 241 nan nan 274 277 273 273 283 284 285 280 288 288 285 287 295 302 297 289 281 281 289 284 268 251 233 222 208 196 194 208 209 217 223 223 211 211 215 218 191 193 190
nan nan nan nan nan nan nan nan nan nan nan nan nan nan nan nan nan nan nan nan nan nan nan nan nan nan 237 243 239 234 239 240 216 241 215 223 236 231 225 219 230 234 197 240 222 243 nan nan 274 270 266 268 270 270 286 283 279 270 280 291 299 297 292 283 286 285 285 274 267 247 247 231 214 205 195 208 213 219 221 218 227 219 209 221 190 203
nan nan nan nan nan nan nan nan nan nan nan nan nan nan nan nan nan nan nan nan nan nan nan nan nan nan 246 243 241 243 242 206 240 244 260 271 228 236 242 238 231 241 218 204 216 232 255 nan 269 269 262 262 261 266 261 266 266 270 264 279 285 290 286 278 281 284 282 280 267 261 249 247 235 231 214 213 206 214 214 209 202 225 219 208 181 182
nan nan nan nan nan nan nan nan nan nan nan nan nan nan nan nan nan nan nan nan nan nan nan nan nan 231 238 244 242 245 245 244 221 226 238 242 251 259 265 257 261 233 224 205 232 233 247 nan 263 264 265 260 258 260 262 254 261 263 263 269 275 277 282 279 277 277 283 274 273 265 258 251 243 242 228 219 208 222 226 220 214 187 196 208 203 175
nan nan nan nan nan nan nan nan nan nan nan nan nan nan nan nan nan nan nan nan nan nan nan nan nan 240 241 248 239 237 237 239 231 254 235 229 224 254 272 275 280 266 228 245 248 214 238 250 256 257 260 260 255 257 256 262 257 254 261 271 273 274 278 276 275 272 275 272 265 271 268 262 255 243 236 231 213 203 221 235 213 230 185 187 218 219
nan nan nan nan nan nan nan nan nan nan nan nan nan nan nan nan nan nan nan nan nan nan nan nan nan nan 254 254 242 224 248 243 239 239 242 233 234 234 257 270 265 273 254 224 224 214 192 234 242 249 257 259 258 257 256 255 258 258 254 258 268 272 269 275 277 272 273 270 270 278 273 266 266 263 259 253 256 228 226 231 230 231 233 205 199 233
nan nan nan nan nan nan nan nan nan nan nan nan nan nan nan nan nan nan nan nan nan nan nan nan nan 271 nan 253 250 nan 225 235 232 243 242 245 236 242 244 243 259 268 269 252 238 239 197 190 235 235 246 253 256 256 258 255 253 255 254 260 268 270 273 276 281 280 269 272 271 268 272 269 262 264 266 255 262 251 237 234 235 219 244 240 232 220
nan nan nan nan nan nan nan nan nan nan nan nan nan nan nan nan nan nan nan nan nan nan nan nan nan nan nan 254 244 239 248 238 227 233 242 238 232 223 232 244 233 254 262 255 245 237 235 218 197 215 230 240 246 250 254 254 252 250 255 255 263 265 265 265 257 259 259 266 257 254 261 268 260 255 258 248 251 258 259 262 264 247 239 258 246 248
nan nan nan nan nan nan nan nan nan nan nan nan nan nan nan nan nan nan nan nan nan nan nan nan nan nan 244 248 254 255 246 242 230 231 233 242 244 230 222 234 238 236 245 265 257 247 247 242 218 195 200 225 225 212 220 256 252 252 253 259 257 265 267 270 260 255 262 263 253 254 260 256 253 253 247 256 258 261 267 265 261 271 255 251 257 254
nan nan nan nan nan nan nan nan nan nan nan nan nan nan nan nan nan nan nan nan nan nan nan nan nan 253 257 261 257 250 235 239 232 229 235 237 242 245 229 232 231 232 246 261 262 244 248 248 238 226 213 218 235 237 199 229 252 248 244 237 252 250 254 262 266 262 253 252 253 257 263 264 266 267 259 259 267 263 266 268 265 264 263 261 256 256
nan nan nan nan nan nan nan nan nan nan nan nan nan nan nan nan nan nan nan nan nan nan nan nan nan 261 263 252 259 244 232 236 230 226 231 232 239 245 246 241 242 243 237 255 268 245 244 240 222 224 222 219 220 216 216 233 232 241 252 248 246 248 247 250 252 265 257 249 247 246 258 259 253 254 257 265 264 268 270 270 271 270 269 270 270 264
nan nan nan nan nan nan nan nan nan nan nan nan nan nan nan nan nan nan nan nan nan nan nan nan nan 262 253 254 253 243 236 233 227 224 226 234 236 238 239 240 240 245 249 252 257 263 251 246 239 231 223 220 224 224 221 224 231 225 228 237 239 242 245 251 243 245 258 254 257 257 250 247 259 261 267 262 259 269 271 273 273 276 276 271 268 273
nan nan nan nan nan nan nan nan nan nan nan nan nan nan nan nan nan nan nan nan nan nan nan nan nan 256 250 247 248 248 243 236 232 224 223 231 236 236 239 242 244 243 246 253 257 257 254 255 251 242 231 227 232 229 224 228 228 223 223 240 245 245 247 250 239 245 253 250 249 250 251 252 250 254 262 262 261 264 268 267 268 267 276 277 272 271
nan nan nan nan nan nan nan nan nan nan nan nan nan nan nan nan nan nan nan nan nan nan nan nan nan 253 263 253 245 247 248 244 237 235 229 230 235 235 237 238 242 244 247 252 256 256 255 255 259 259 248 241 237 235 233 229 227 233 231 233 241 244 246 243 241 237 246 259 256 248 248 251 253 251 251 257 260 268 269 270 271 271 273 275 274 276
nan nan nan nan nan nan nan nan nan nan nan nan nan nan nan nan nan nan nan nan nan 239 225 nan nan 238 239 241 244 239 242 242 241 241 237 234 231 232 232 237 240 242 243 244 253 256 256 257 258 260 260 253 244 237 232 223 222 226 228 233 233 236 235 228 222 229 242 253 257 255 252 245 247 260 260 254 252 261 268 272 272 268 271 273 275 275
nan nan nan nan nan nan nan nan nan nan nan nan nan nan nan nan nan nan nan nan nan 237 237 247 257 252 246 263 251 244 238 239 240 239 241 241 235 230 229 231 235 241 244 246 249 253 256 259 265 269 268 260 252 239 231 228 225 225 228 232 234 235 241 247 253 244 228 225 241 261 256 248 245 240 250 260 256 253 260 264 267 271 265 267 270 274
nan nan nan nan nan nan nan nan nan nan nan nan nan nan nan nan nan nan nan nan nan nan nan 250 251 254 251 242 240 239 238 239 237 237 240 245 241 234 231 231 232 238 243 249 251 253 256 257 259 263 264 260 253 242 235 234 231 228 229 231 233 235 239 244 241 235 244 254 242 225 236 251 250 251 244 243 252 254 256 260 263 264 262 258 267 272
nan nan nan nan nan nan nan nan nan nan nan nan nan nan nan nan nan nan nan nan 244 244 nan 249 252 257 261 271 276 264 246 241 239 238 241 244 240 235 233 233 232 236 241 247 253 256 258 259 261 267 272 272 264 253 245 242 239 236 237 235 231 231 235 240 243 242 240 238 239 249 237 219 221 226 236 248 246 250 253 255 259 251 251 250 244 239
nan nan nan nan nan nan nan nan nan nan nan nan nan nan nan nan nan nan nan nan 253 252 249 248 253 252 251 250 260 265 259 246 243 240 241 238 232 233 233 232 231 234 238 242 251 258 260 262 264 267 272 274 272 269 262 258 254 254 251 241 233 226 225 231 238 241 240 238 237 232 232 239 231 213 226 245 249 249 248 251 251 249 254 252 247 245
nan nan nan nan nan nan nan nan nan nan nan nan nan nan nan nan nan nan nan 250 251 260 257 253 261 267 262 261 259 262 255 248 242 236 237 234 229 227 227 227 227 231 235 240 247 254 259 261 263 265 267 268 270 270 269 265 261 258 262 261 243 231 224 223 228 235 235 235 237 233 231 233 235 230 216 240 254 249 247 247 246 248 250 254 254 252
nan nan nan nan nan nan nan nan nan nan nan nan nan nan nan nan nan nan nan nan 258 254 267 268 257 264 273 266 264 257 249 244 240 236 236 234 230 228 229 228 226 226 231 237 243 247 251 253 254 257 260 260 261 264 266 265 262 260 257 258 253 239 230 227 225 227 233 234 234 235 234 235 238 235 232 221 230 249 252 250 249 248 248 249 253 252
nan nan nan nan nan nan nan nan nan nan nan nan nan nan nan nan nan nan 258 261 264 nan nan 275 275 262 273 272 261 258 253 247 241 232 236 235 229 227 228 229 226 224 224 230 238 242 242 242 246 250 254 257 259 263 266 268 267 261 257 261 257 238 227 225 228 228 230 232 233 232 232 234 233 235 235 235 231 244 252 253 251 250 250 249 250 252
nan nan nan nan nan nan nan nan nan nan nan nan 256 nan nan nan 268 nan nan nan 283 279 269 276 277 283 280 282 286 274 261 252 247 240 237 240 239 233 229 228 229 232 232 224 224 232 232 232 239 247 254 260 264 266 271 272 272 271 264 264 267 248 228 224 228 230 229 231 233 231 236 238 241 238 238 239 238 229 244 254 254 253 252 252 253 252
nan nan nan nan nan nan nan nan nan nan nan nan 263 261 nan nan nan 283 277 278 284 279 278 290 287 286 279 268 270 272 265 258 256 252 241 238 235 232 230 226 226 231 236 nan 211 214 225 231 238 245 250 259 267 271 273 275 276 277 272 264 266 261 236 226 229 233 233 231 230 231 232 237 241 242 241 239 243 247 240 242 250 252 252 253 252 253
nan nan nan nan nan nan nan nan nan nan nan nan 267 nan nan nan nan nan 294 287 285 284 285 286 285 284 278 272 265 267 268 262 258 253 248 238 227 220 nan 223 nan nan nan nan nan 208 225 231 237 240 245 255 264 269 273 278 280 281 278 268 261 260 248 234 231 231 233 234 234 233 235 240 250 255 244 234 241 253 256 250 247 250 254 254 250 249
nan nan nan nan nan nan nan nan nan nan nan nan nan nan nan nan nan nan 284 288 264 261 278 284 289 290 286 279 273 270 266 264 258 252 254 250 228 227 nan 212 201 nan nan 213 214 221 237 244 243 244 246 252 261 267 272 276 279 279 278 275 267 260 255 252 243 234 231 232 235 239 241 245 246 247 244 238 237 243 250 246 244 248 252 253 255 254
nan nan nan nan nan nan nan nan nan nan nan 268 263 269 nan nan 264 277 273 282 287 298 293 294 288 289 293 285 277 272 266 260 254 250 254 253 239 nan nan nan nan nan nan 212 232 241 237 244 246 243 245 248 254 264 270 275 278 276 273 271 269 263 258 256 256 254 247 243 242 239 239 240 241 241 240 239 238 239 240 239 240 242 253 255 256 258
nan nan nan nan nan nan nan nan nan nan nan 252 270 264 266 264 nan 280 nan 278 269 279 298 299 293 286 293 289 279 268 259 248 249 254 254 253 248 247 nan nan nan nan 215 224 232 234 233 234 242 246 255 254 248 255 264 264 268 274 273 269 266 264 261 257 259 261 263 264 264 259 255 253 249 243 239 238 237 238 239 240 240 241 243 246 258 264
nan nan nan nan nan nan nan nan nan nan nan 255 259 nan 269 269 274 278 nan 282 292 275 285 300 311 318 302 290 287 283 261 244 258 263 256 250 251 253 250 nan nan nan 228 231 230 227 226 229 233 238 239 248 258 258 257 261 262 264 269 270 268 266 261 258 258 260 264 269 272 268 263 264 262 261 260 253 243 nan nan nan nan nan 244 247 249 258
nan nan nan nan nan nan nan nan nan nan nan nan nan nan 270 267 268 280 272 269 275 281 283 276 285 288 289 294 282 265 258 254 255 268 265 258 254 253 nan nan 236 nan nan 217 214 215 223 225 227 233 239 243 246 249 247 249 254 257 261 265 266 265 265 263 263 261 262 265 266 267 nan nan nan nan nan nan 267 nan nan 242 247 243 235 nan nan 244
nan nan nan nan nan nan nan nan nan nan 255 nan nan nan 261 269 nan nan 261 267 276 289 282 285 291 288 294 294 268 273 271 269 275 272 268 259 252 246 nan nan 249 237 224 nan nan nan nan 225 231 238 241 239 241 nan nan 249 253 255 255 258 259 261 263 264 263 263 262 262 262 265 nan nan nan nan nan nan nan nan nan 256 253 244 228 226 241 269
nan nan nan nan nan nan nan nan nan nan 254 250 nan 271 261 nan 262 277 277 280 288 283 282 293 294 292 287 285 284 283 283 280 279 273 265 261 255 246 nan nan 238 nan nan nan nan nan nan nan nan nan nan nan nan nan nan nan nan nan nan nan nan 254 256 256 258 261 263 nan nan nan nan nan nan nan nan nan nan nan nan nan nan 265 262 259 262 271
nan nan nan nan nan nan nan nan nan 247 nan 274 nan 255 257 255 267 276 288 286 293 288 286 287 298 310 315 317 299 295 288 284 277 273 264 260 nan nan nan nan nan nan nan nan nan nan nan nan nan nan nan nan nan nan nan nan nan nan nan nan nan nan nan nan nan nan nan nan nan nan nan nan nan nan nan nan nan nan nan nan nan nan nan 280 280 281
nan nan 223 218 nan nan 227 240 248 254 263 264 255 253 262 272 281 285 287 286 290 285 279 287 285 289 294 296 295 295 293 286 281 276 269 260 nan nan nan nan nan nan nan nan nan nan nan nan nan nan nan nan nan nan nan nan nan nan nan nan nan nan nan nan nan nan nan nan nan nan nan nan nan nan nan nan nan nan nan nan nan nan nan nan 281 282
244 nan 223 nan nan nan nan 248 238 243 259 263 260 262 269 275 277 281 282 286 283 279 284 280 287 293 295 295 293 293 287 284 281 276 269 265 nan nan nan nan nan nan nan nan nan nan nan nan nan nan nan nan nan nan nan nan nan nan nan nan nan nan nan nan nan nan nan nan nan nan nan nan nan nan nan nan nan nan nan nan nan nan nan nan nan nan
nan nan nan nan 238 nan nan 263 nan 257 261 269 268 268 265 269 268 271 275 273 278 283 278 278 284 291 294 294 291 288 289 287 278 274 273 267 nan nan nan nan nan nan nan nan nan nan nan nan nan nan nan nan nan nan nan nan nan nan nan nan nan nan nan nan nan nan nan nan nan nan nan nan nan nan nan nan nan nan nan nan nan nan nan nan nan nan
nan nan nan nan 242 nan 235 250 256 261 257 266 272 270 271 269 271 271 273 274 276 277 278 279 284 291 293 292 289 289 291 288 282 280 279 278 nan nan 251 nan nan 249 243 240 240 nan nan nan nan nan nan nan nan nan nan nan nan nan nan nan nan nan nan nan nan nan nan nan nan nan nan nan nan nan nan nan nan nan nan nan nan nan nan nan nan nan
249 nan nan nan nan 253 256 254 255 257 260 266 266 261 263 270 273 275 274 278 283 281 281 283 282 284 292 288 290 294 294 288 284 284 283 283 278 272 264 258 256 253 251 246 243 242 245 248 249 249 249 249 nan nan nan nan nan nan nan nan nan 244 244 nan nan nan nan nan nan nan nan nan nan nan nan nan nan nan nan nan nan nan nan nan nan nan
nan nan nan nan nan nan 258 263 259 255 262 267 267 264 266 270 274 276 278 285 285 284 285 286 282 282 281 290 295 294 291 287 287 288 284 281 282 279 275 267 260 258 254 252 249 249 249 248 248 248 248 247 247 248 nan nan nan nan nan nan nan nan nan nan nan nan nan nan nan nan nan nan nan nan nan nan nan nan nan nan nan nan nan nan nan nan
nan nan nan nan nan nan nan 274 267 245 235 258 262 266 271 274 276 278 284 283 284 286 286 285 285 282 285 288 290 290 288 288 287 285 284 280 276 273 270 269 264 257 254 251 251 249 247 248 246 245 245 245 246 248 249 nan nan nan nan nan nan nan nan nan nan nan nan nan nan nan nan nan nan nan nan nan nan nan nan nan nan nan nan nan nan nan